Weather reports worldwide

Advertisment
Malaga/Aeropuerto, Spain (8482): temperature & dewpoint: 06.12.2018 00:00:00 - 12.12.2018 00:00:00 (CET)Malaga/Aeropuerto, Spain (8482): wind speed: 06.12.2018 00:00:00 - 12.12.2018 00:00:00 (CET)Malaga/Aeropuerto, Spain (8482): wind direction: 06.12.2018 00:00:00 - 12.12.2018 00:00:00 (CET)Malaga/Aeropuerto, Spain (8482): reduced air pressure: 06.12.2018 00:00:00 - 12.12.2018 00:00:00 (CET)Malaga/Aeropuerto, Spain (8482): visibility: 06.12.2018 00:00:00 - 12.12.2018 00:00:00 (CET)
Date & Time tt [°C] td [°C] ff [km/h] ff [kn] dd ppp [hPa] vv [km]
12.12.2018 00:00:00 14,6 10,1 18 10 W 1023,0 -
11.12.2018 23:00:00 15,1 10,1 18 10 W 1023,3 -
11.12.2018 22:00:00 15,3 9,9 16 9 W 1023,1 10
11.12.2018 21:00:00 15,6 9,8 16 9 W 1022,9 -
11.12.2018 20:00:00 15,7 9,5 16 9 W 1023,0 -
11.12.2018 19:00:00 15,8 9,9 15 8 W 1022,6 12
11.12.2018 18:00:00 16,3 10,7 9 5 W 1022,3 -
11.12.2018 17:00:00 17,8 11,3 9 5 W 1022,4 -
11.12.2018 16:00:00 17,8 12,5 11 6 SW 1022,6 12
11.12.2018 15:00:00 18,4 11,9 9 5 W 1022,9 -
11.12.2018 14:00:00 17,3 11,4 8 4 WNW 1023,8 12
11.12.2018 13:00:00 15,2 11,5 9 5 WNW 1025,2 8
11.12.2018 12:00:00 14,1 10,7 11 6 W 1025,9 -
11.12.2018 11:00:00 12,6 9,5 11 6 WNW 1026,1 -
11.12.2018 10:00:00 11,3 8,5 15 8 WNW 1025,8 12
11.12.2018 09:00:00 10,2 7,5 15 8 WNW 1025,1 -
11.12.2018 08:00:00 9,7 7,3 11 6 WNW 1025,0 15
11.12.2018 07:00:00 9,3 6,8 11 6 WNW 1024,7 15
11.12.2018 06:00:00 9,4 6,9 15 8 WNW 1024,9 -
11.12.2018 05:00:00 9,9 7,2 11 6 WNW 1025,1 -
11.12.2018 04:00:00 9,8 7,3 13 7 WNW 1025,5 12
11.12.2018 03:00:00 11,2 7,1 9 5 WNW 1025,7 -
11.12.2018 02:00:00 10,4 7,2 11 6 WNW 1025,8 -
11.12.2018 01:00:00 10,0 7,5 11 6 WNW 1026,1 12
11.12.2018 00:00:00 10,6 7,5 11 6 WNW 1026,5 -
10.12.2018 23:00:00 10,7 7,6 9 5 W 1026,6 -
10.12.2018 22:00:00 11,6 7,4 9 5 WNW 1026,6 15
10.12.2018 21:00:00 12,3 9,5 9 5 WNW 1026,4 -
10.12.2018 20:00:00 12,7 8,8 4 2 SW 1026,4 -
10.12.2018 19:00:00 13,8 10,5 5 3 S 1026,1 15
10.12.2018 18:00:00 17,5 11,5 5 3 ESE 1025,9 -
10.12.2018 17:00:00 20,0 11,0 9 5 ESE 1025,9 -
10.12.2018 16:00:00 21,2 10,4 11 6 ESE 1025,9 20
10.12.2018 15:00:00 21,6 10,1 8 4 ESE 1026,0 -
10.12.2018 14:00:00 20,8 13,1 0 0 N 1026,7 15
10.12.2018 13:00:00 18,6 11,6 4 2 NW 1027,5 20
10.12.2018 12:00:00 16,9 10,5 5 3 NW 1028,4 -
10.12.2018 11:00:00 14,2 9,7 4 2 WNW 1028,7 -
10.12.2018 10:00:00 11,0 7,6 9 5 WNW 1028,3 30
10.12.2018 09:00:00 8,9 6,8 11 6 WNW 1027,8 -
10.12.2018 08:00:00 8,8 6,4 8 4 WNW 1027,6 20
10.12.2018 07:00:00 9,1 6,6 5 3 W 1027,2 15
10.12.2018 06:00:00 9,0 6,8 11 6 W 1026,8 -
10.12.2018 05:00:00 9,1 7,2 15 8 W 1026,7 -
10.12.2018 04:00:00 9,4 7,6 13 7 WNW 1027,3 12
10.12.2018 03:00:00 9,8 8,1 16 9 W 1027,7 -
10.12.2018 02:00:00 10,0 8,5 13 7 W 1027,9 -
10.12.2018 01:00:00 10,4 9,0 15 8 W 1028,5 15
10.12.2018 00:00:00 10,9 9,4 11 6 W 1028,6 -
09.12.2018 23:00:00 11,6 10,0 15 8 W 1028,6 -
09.12.2018 22:00:00 12,2 10,3 13 7 WNW 1028,7 20
09.12.2018 21:00:00 12,3 10,5 11 6 W 1028,6 -
09.12.2018 20:00:00 13,2 11,2 5 3 WNW 1028,4 -
09.12.2018 19:00:00 13,6 11,8 0 0 N 1028,2 25
09.12.2018 18:00:00 16,0 12,9 8 4 SE 1027,9 -
09.12.2018 17:00:00 18,4 13,6 9 5 SE 1027,9 -
09.12.2018 16:00:00 18,7 13,5 9 5 SE 1027,9 30
09.12.2018 15:00:00 19,3 12,5 9 5 ESE 1028,1 -
09.12.2018 14:00:00 19,4 12,3 11 6 SE 1028,7 3,0
09.12.2018 13:00:00 19,1 11,3 4 2 E 1029,6 25
09.12.2018 12:00:00 16,1 11,3 8 4 WNW 1030,4 -
09.12.2018 11:00:00 13,5 10,2 11 6 WNW 1031,1 -
09.12.2018 10:00:00 11,6 9,1 15 8 W 1030,6 30
09.12.2018 09:00:00 8,6 7,3 16 9 WNW 1030,4 -
09.12.2018 08:00:00 8,4 7,4 18 10 W 1030,3 15
09.12.2018 07:00:00 8,8 7,5 15 8 WNW 1030,0 15
09.12.2018 06:00:00 9,1 8,1 18 10 W 1029,6 -
09.12.2018 05:00:00 8,8 7,8 21 11 W 1029,9 -
09.12.2018 04:00:00 9,1 8,0 21 11 W 1030,2 15
09.12.2018 03:00:00 9,6 8,1 15 8 WNW 1030,0 -
09.12.2018 02:00:00 10,2 8,9 16 9 W 1029,7 -
09.12.2018 01:00:00 10,7 9,2 16 9 W 1030,0 15
09.12.2018 00:00:00 11,3 9,5 13 7 WNW 1030,0 -
08.12.2018 23:00:00 12,0 10,0 15 8 W 1029,9 -
08.12.2018 22:00:00 13,0 11,0 13 7 W 1029,5 15
08.12.2018 21:00:00 13,3 11,1 11 6 W 1029,0 -
08.12.2018 20:00:00 14,2 11,7 2 1 W 1028,6 -
08.12.2018 19:00:00 14,1 12,3 4 2 S 1028,3 25
08.12.2018 18:00:00 16,7 12,9 4 2 SE 1027,7 -
08.12.2018 17:00:00 18,4 13,9 8 4 ESE 1027,1 -
08.12.2018 16:00:00 19,1 15,1 11 6 ESE 1026,7 25
08.12.2018 15:00:00 18,2 15,1 16 9 E 1026,6 -
08.12.2018 14:00:00 18,2 14,7 22 12 E 1026,4 2,0
08.12.2018 13:00:00 21,4 9,4 22 12 W 1026,2 30
08.12.2018 12:00:00 20,7 9,4 31 17 W 1026,5 -
08.12.2018 11:00:00 19,6 9,2 31 17 W 1026,7 -
08.12.2018 10:00:00 18,5 8,9 35 19 W 1026,3 30
08.12.2018 09:00:00 17,3 8,6 31 17 W 1026,1 -
08.12.2018 08:00:00 16,4 8,3 28 15 W 1025,7 20
08.12.2018 07:00:00 16,3 7,8 34 18 W 1025,2 20
08.12.2018 06:00:00 16,5 7,9 34 18 WNW 1025,1 -
08.12.2018 05:00:00 16,7 7,8 29 16 W 1025,3 -
08.12.2018 04:00:00 17,6 8,0 31 17 W 1025,7 20
08.12.2018 03:00:00 17,3 8,7 34 18 W 1026,0 -
08.12.2018 02:00:00 16,8 8,7 31 17 W 1026,1 -
08.12.2018 01:00:00 17,4 8,3 34 18 W 1026,5 20
08.12.2018 00:00:00 17,3 7,8 34 18 W 1026,8 -
07.12.2018 23:00:00 13,3 9,1 15 8 WNW 1026,9 -
07.12.2018 22:00:00 11,2 10,7 18 10 WNW 1026,9 2,5
07.12.2018 21:00:00 12,3 11,1 8 4 NW 1027,6 -
07.12.2018 20:00:00 13,8 12,4 0 0 N 1027,4 -
07.12.2018 19:00:00 14,0 12,9 5 3 E 1027,1 5
07.12.2018 18:00:00 14,2 12,2 5 3 ESE 1026,5 -
07.12.2018 17:00:00 15,7 12,8 8 4 SE 1026,5 -
07.12.2018 16:00:00 16,2 12,7 9 5 SE 1026,6 5
07.12.2018 15:00:00 15,6 12,5 13 7 SE 1026,8 -
07.12.2018 14:00:00 15,0 12,6 13 7 SE 1027,7 5
07.12.2018 13:00:00 14,8 12,6 13 7 SE 1028,0 5
07.12.2018 12:00:00 14,2 12,3 9 5 SE 1028,8 -
07.12.2018 11:00:00 11,1 10,7 4 2 N 1028,8 -
07.12.2018 10:00:00 9,7 9,6 11 6 WNW 1028,7 -
07.12.2018 09:00:00 9,3 8,7 9 5 WNW 1028,3 -
07.12.2018 08:00:00 - - - - - - -
07.12.2018 07:00:00 9,4 9,4 8 4 WNW 1027,5 0,7
07.12.2018 06:00:00 10,1 10,0 8 4 WNW 1027,1 -
07.12.2018 05:00:00 11,0 10,8 15 8 W 1026,9 -
07.12.2018 04:00:00 11,4 11,2 13 7 WNW 1027,0 0,9
07.12.2018 03:00:00 12,0 11,6 18 10 WNW 1027,0 -
07.12.2018 02:00:00 13,1 12,7 13 7 WNW 1027,0 -
07.12.2018 01:00:00 13,6 13,0 13 7 WNW 1027,3 3,0
07.12.2018 00:00:00 14,1 13,4 11 6 NW 1027,2 -
06.12.2018 23:00:00 14,8 13,6 9 5 WNW 1027,4 -
06.12.2018 22:00:00 15,8 14,0 15 8 ENE 1027,0 3,0
06.12.2018 21:00:00 - - - - - - -
06.12.2018 20:00:00 15,9 14,5 4 2 SE 1026,6 -
06.12.2018 19:00:00 15,7 14,6 5 3 SE 1026,1 5
06.12.2018 18:00:00 15,5 13,8 9 5 SE 1025,6 -
06.12.2018 17:00:00 17,3 14,4 11 6 SE 1025,2 -
06.12.2018 16:00:00 17,8 14,3 9 5 ESE 1025,2 20
06.12.2018 15:00:00 17,9 13,6 11 6 ESE 1025,5 -
06.12.2018 14:00:00 17,5 12,7 11 6 SE 1026,2 20
06.12.2018 13:00:00 17,5 13,5 9 5 SE 1026,7 20
06.12.2018 12:00:00 17,4 13,7 9 5 SE 1027,4 -
06.12.2018 11:00:00 14,9 10,1 0 0 N 1027,8 -
06.12.2018 10:00:00 12,0 9,0 8 4 WNW 1027,4 12
06.12.2018 09:00:00 10,1 7,9 5 3 W 1026,9 -
06.12.2018 08:00:00 9,2 7,3 8 4 W 1026,2 20
06.12.2018 07:00:00 10,3 8,2 8 4 W 1025,6 10
06.12.2018 06:00:00 10,0 8,2 13 7 WNW 1025,4 -
06.12.2018 05:00:00 9,6 8,1 11 6 W 1025,4 -
06.12.2018 04:00:00 9,9 8,3 13 7 WNW 1025,6 10
06.12.2018 03:00:00 10,1 8,7 9 5 W 1025,6 -
06.12.2018 02:00:00 10,0 8,8 11 6 W 1025,8 -
06.12.2018 01:00:00 10,4 8,7 11 6 W 1026,5 10
06.12.2018 00:00:00 11,4 9,4 15 8 W 1026,9 -

tt = temperature
td = dewpoint
ff = wind speed
dd = wind direction
ppp = reduced air pressure
vv = visibility

Next stations